Location: Karlovy Vary
(50.2170°N, 12.9000°E)
Time: 09:34:19
(UTC+01:00)

X-37B - Visible Passes

Search period start: 01 December 2020 00:00
Search period end: 11 December 2020 00:00
Orbit: 384 x 390 km, 45.0° (Epoch: 26 November)

Date Brightness Start Highest point End Pass type
(mag) Time Alt. Az. Time Alt. Az. Time Alt. Az.
01 Dec 3.0 16:52:10 10° S 16:54:00 14° SSE 16:55:50 10° ESE visible
01 Dec 2.2 18:27:12 10° SW 18:29:28 27° SSW 18:29:28 27° SSW visible
02 Dec 2.3 17:28:56 10° SW 17:31:37 25° SSE 17:33:31 15° ESE visible
02 Dec 3.6 19:04:57 10° WSW 19:05:47 16° WSW 19:05:47 16° WSW visible
03 Dec 1.8 18:06:30 10° WSW 18:09:22 31° S 18:09:50 30° SSE visible
04 Dec 2.1 17:08:06 10° SW 17:10:55 29° S 17:13:45 10° ESE visible
04 Dec 2.8 18:44:22 10° WSW 18:46:11 23° SW 18:46:11 23° SW visible
05 Dec 2.1 17:45:50 10° WSW 17:48:41 31° S 17:50:19 19° SE visible
06 Dec 2.2 16:47:23 10° WSW 16:50:15 31° S 16:53:07 10° ESE visible
06 Dec 2.6 18:23:52 10° WSW 18:26:25 22° SSW 18:26:47 22° S visible
07 Dec 2.4 17:25:15 10° WSW 17:28:01 27° S 17:30:46 10° SE visible
07 Dec 3.8 19:02:43 10° SW 19:03:22 11° SW 19:03:22 11° SW visible
08 Dec 3.2 18:03:31 10° WSW 18:05:40 17° SSW 18:07:48 10° SSE visible
09 Dec 2.9 17:04:46 10° WSW 17:07:18 22° SSW 17:09:51 10° SE visible
10 Dec 3.7 17:43:37 10° SW 17:44:53 12° SSW 17:46:09 10° S visible
